User: anonymous   Login
Location: Jackson
(35.6140°N, 88.8140°W)
Time: 01:49:20
(UTC-06:00)
Language:

DUCHIFAT 1 - Orbit

View from above orbital plane
View from above orbital plane
View from above satellite
View from above satellite

Ground track
Ground track

The orbit data is extracted from the following two-line orbital elements,

1 40021U 14033M   19342.85967805 +.00000292 +00000-0 +35519-4 0  9995
2 40021 097.9315 268.0693 0012317 193.3967 166.6925 14.90756764297348
Epoch (UTC): 08 December 2019 20:37:56
Eccentricity: 0.0012317
inclination: 97.9315°
perigee height: 587 km
apogee height: 604 km
right ascension of ascending node: 268.0693°
argument of perigee: 193.3967°
revolutions per day: 14.90756764
mean anomaly at epoch: 166.6925°
orbit number at epoch: 29734

The dashed part of the orbit path shows where the satellite is in the earth's shadow,  

DLR